When you browse on this site, cookies collect data to enhance your experience and personalize the content and advertising you see.
Visit our Privacy Policy to learn more. By continuing to use the site, you agree to this use of cookies and data.
  • en Suisse
  • Liste des pays
  • À 7 jours
  • Température de l'eau
  • Carte satellitaire
  • Carte météo
  • Widgets météo
  • user-avatar
    Se connecter

    Météo par heure à Weinheim

    Ce jour, 18 Juillet, Jeudi

    Heure Température Précipitation Vent Pression Humidité
    00:00 +19°C° 0 mm 1 m/s 747 mmHg 61%
    01:00 +18°C° 0 mm 1 m/s 747 mmHg 64%
    02:00 +18°C° 0 mm 1 m/s 747 mmHg 66%
    03:00 +18°C° 0 mm 1 m/s 747 mmHg 68%
    04:00 +16°C° 0 mm 0 m/s 747 mmHg 71%
    05:00 +16°C° 0 mm 0 m/s 747 mmHg 69%
    06:00 +17°C° 0 mm 0 m/s 747 mmHg 67%
    07:00 +18°C° 0 mm 0 m/s 747 mmHg 66%
    08:00 +22°C° 0 mm 1 m/s 747 mmHg 60%
    09:00 +23°C° 0 mm 1 m/s 747 mmHg 55%
    10:00 +25°C° 0 mm 1 m/s 748 mmHg 49%
    11:00 +26°C° 0 mm 2 m/s 747 mmHg 45%
    12:00 +28°C° 0 mm 2 m/s 747 mmHg 41%
    13:00 +29°C° 0 mm 2 m/s 747 mmHg 37%
    14:00 +29°C° 0 mm 3 m/s 747 mmHg 38%
    15:00 +29°C° 0 mm 3 m/s 747 mmHg 38%
    16:00 +29°C° 0 mm 3 m/s 747 mmHg 39%
    17:00 +28°C° 0 mm 2 m/s 747 mmHg 43%
    18:00 +27°C° 0 mm 2 m/s 747 mmHg 47%
    19:00 +26°C° 0 mm 1 m/s 747 mmHg 51%
    20:00 +25°C° 0.3 mm 1 m/s 747 mmHg 57%
    21:00 +23°C° 0.3 mm 1 m/s 748 mmHg 64%
    22:00 +22°C° 0.3 mm 1 m/s 748 mmHg 71%
    23:00 +21°C° 0.2 mm 1 m/s 748 mmHg 72%

    Demain, 19 Juillet, Vendredi

    Heure Température Précipitation Vent Pression Humidité
    00:00 +20°C° 0.2 mm 1 m/s 748 mmHg 74%
    01:00 +20°C° 0.2 mm 1 m/s 748 mmHg 76%
    02:00 +20°C° 0 mm 1 m/s 748 mmHg 77%
    03:00 +19°C° 0 mm 1 m/s 748 mmHg 77%
    04:00 +19°C° 0 mm 1 m/s 748 mmHg 78%
    05:00 +20°C° 0 mm 1 m/s 749 mmHg 77%
    06:00 +20°C° 0 mm 1 m/s 749 mmHg 76%
    07:00 +21°C° 0 mm 1 m/s 749 mmHg 76%
    08:00 +21°C° 0.1 mm 1 m/s 749 mmHg 74%
    09:00 +22°C° 0.1 mm 1 m/s 749 mmHg 73%
    10:00 +22°C° 0.1 mm 1 m/s 749 mmHg 72%
    11:00 +24°C° 0.2 mm 2 m/s 749 mmHg 67%
    12:00 +25°C° 0.2 mm 2 m/s 749 mmHg 61%
    13:00 +26°C° 0.2 mm 3 m/s 749 mmHg 55%
    14:00 +27°C° 0.1 mm 3 m/s 749 mmHg 53%
    15:00 +27°C° 0.1 mm 3 m/s 749 mmHg 51%
    16:00 +28°C° 0.1 mm 3 m/s 749 mmHg 49%
    17:00 +27°C° 0.2 mm 3 m/s 749 mmHg 56%
    18:00 +26°C° 0.2 mm 2 m/s 749 mmHg 62%
    19:00 +25°C° 0.2 mm 2 m/s 749 mmHg 69%
    20:00 +24°C° 0 mm 1 m/s 749 mmHg 72%
    21:00 +23°C° 0 mm 1 m/s 749 mmHg 76%
    22:00 +22°C° 0 mm 1 m/s 749 mmHg 79%
    23:00 +21°C° 0 mm 1 m/s 749 mmHg 81%

    Après-demain, 20 Juillet, Samedi

    Heure Température Précipitation Vent Pression Humidité
    00:00 +19°C° 0 mm 0 m/s 749 mmHg 82%
    01:00 +18°C° 0 mm 0 m/s 749 mmHg 84%
    02:00 +18°C° 0 mm 0 m/s 749 mmHg 84%
    03:00 +18°C° 0 mm 0 m/s 749 mmHg 85%
    04:00 +17°C° 0 mm 0 m/s 749 mmHg 85%
    05:00 +20°C° 0 mm 1 m/s 749 mmHg 82%
    06:00 +21°C° 0 mm 1 m/s 749 mmHg 80%
    07:00 +22°C° 0 mm 1 m/s 749 mmHg 77%
    08:00 +24°C° 0 mm 1 m/s 749 mmHg 69%
    09:00 +26°C° 0 mm 2 m/s 749 mmHg 61%
    10:00 +28°C° 0 mm 2 m/s 749 mmHg 54%
    11:00 +29°C° 0 mm 3 m/s 749 mmHg 50%
    12:00 +30°C° 0 mm 3 m/s 749 mmHg 46%
    13:00 +32°C° 0 mm 4 m/s 749 mmHg 43%
    14:00 +32°C° 0 mm 4 m/s 749 mmHg 42%
    15:00 +33°C° 0 mm 4 m/s 749 mmHg 40%
    16:00 +33°C° 0 mm 4 m/s 748 mmHg 39%
    17:00 +31°C° 0 mm 3 m/s 749 mmHg 44%
    18:00 +30°C° 0 mm 3 m/s 749 mmHg 48%
    19:00 +29°C° 0 mm 2 m/s 749 mmHg 52%
    20:00 +28°C° 0.3 mm 2 m/s 749 mmHg 58%
    21:00 +26°C° 0.3 mm 2 m/s 749 mmHg 63%
    22:00 +24°C° 0.3 mm 1 m/s 750 mmHg 69%
    23:00 +24°C° 0.5 mm 1 m/s 750 mmHg 72%

    21 Juillet, Dimanche

    Heure Température Précipitation Vent Pression Humidité
    00:00 +23°C° 0.5 mm 1 m/s 750 mmHg 76%
    01:00 +22°C° 0.5 mm 1 m/s 750 mmHg 79%
    02:00 +22°C° 0.1 mm 1 m/s 751 mmHg 80%
    03:00 +22°C° 0.1 mm 1 m/s 751 mmHg 80%
    04:00 +22°C° 0.1 mm 1 m/s 751 mmHg 81%
    05:00 +22°C° 0 mm 1 m/s 751 mmHg 79%
    06:00 +23°C° 0 mm 1 m/s 752 mmHg 78%
    07:00 +23°C° 0 mm 1 m/s 752 mmHg 76%
    08:00 +24°C° 0 mm 2 m/s 753 mmHg 67%
    09:00 +26°C° 0 mm 3 m/s 753 mmHg 59%
    10:00 +27°C° 0 mm 3 m/s 753 mmHg 50%
    11:00 +28°C° 0 mm 4 m/s 753 mmHg 47%
    12:00 +29°C° 0 mm 4 m/s 754 mmHg 45%
    13:00 +29°C° 0 mm 4 m/s 754 mmHg 42%
    14:00 +29°C° 0 mm 4 m/s 754 mmHg 42%
    15:00 +30°C° 0 mm 4 m/s 754 mmHg 42%
    16:00 +30°C° 0 mm 3 m/s 753 mmHg 42%
    17:00 +29°C° 0 mm 3 m/s 754 mmHg 46%
    18:00 +28°C° 0 mm 2 m/s 754 mmHg 50%
    19:00 +27°C° 0 mm 2 m/s 754 mmHg 54%
    20:00 +26°C° 0 mm 1 m/s 754 mmHg 57%
    21:00 +24°C° 0 mm 1 m/s 754 mmHg 59%
    22:00 +23°C° 0 mm 1 m/s 755 mmHg 62%
    23:00 +22°C° 0 mm 1 m/s 755 mmHg 64%

    22 Juillet, Lundi

    Heure Température Précipitation Vent Pression Humidité
    00:00 +22°C° 0 mm 1 m/s 755 mmHg 66%
    01:00 +21°C° 0 mm 1 m/s 755 mmHg 67%
    02:00 +21°C° 0 mm 1 m/s 755 mmHg 69%
    03:00 +20°C° 0 mm 1 m/s 755 mmHg 71%
    04:00 +20°C° 0 mm 1 m/s 755 mmHg 72%
    05:00 +21°C° 0 mm 1 m/s 755 mmHg 70%
    06:00 +22°C° 0 mm 1 m/s 755 mmHg 68%
    07:00 +23°C° 0 mm 1 m/s 755 mmHg 65%
    08:00 +25°C° 0 mm 1 m/s 755 mmHg 60%
    09:00 +26°C° 0 mm 1 m/s 755 mmHg 55%
    10:00 +28°C° 0 mm 2 m/s 755 mmHg 50%
    11:00 +30°C° 0 mm 2 m/s 755 mmHg 46%
    12:00 +31°C° 0 mm 2 m/s 754 mmHg 43%
    13:00 +32°C° 0 mm 2 m/s 754 mmHg 39%
    14:00 +34°C° 0 mm 2 m/s 754 mmHg 39%
    15:00 +34°C° 0 mm 2 m/s 753 mmHg 38%
    16:00 +34°C° 0 mm 2 m/s 753 mmHg 37%
    17:00 +32°C° 0 mm 2 m/s 753 mmHg 43%
    18:00 +31°C° 0 mm 3 m/s 753 mmHg 49%
    19:00 +29°C° 0 mm 3 m/s 753 mmHg 55%
    20:00 +28°C° 0 mm 3 m/s 753 mmHg 57%
    21:00 +27°C° 0 mm 2 m/s 753 mmHg 59%
    22:00 +25°C° 0 mm 2 m/s 753 mmHg 61%
    23:00 +25°C° 0 mm 2 m/s 753 mmHg 62%

    23 Juillet, Mardi

    Heure Température Précipitation Vent Pression Humidité
    00:00 +24°C° 0 mm 2 m/s 753 mmHg 62%
    01:00 +23°C° 0 mm 2 m/s 753 mmHg 63%
    02:00 +23°C° 0 mm 2 m/s 753 mmHg 65%
    03:00 +21°C° 0 mm 2 m/s 753 mmHg 68%
    04:00 +22°C° 0 mm 1 m/s 752 mmHg 70%
    05:00 +22°C° 0 mm 1 m/s 752 mmHg 69%
    06:00 +23°C° 0 mm 1 m/s 752 mmHg 67%
    07:00 +24°C° 0 mm 1 m/s 752 mmHg 66%
    08:00 +26°C° 0 mm 2 m/s 752 mmHg 60%
    09:00 +28°C° 0 mm 2 m/s 752 mmHg 53%
    10:00 +30°C° 0 mm 2 m/s 752 mmHg 47%
    11:00 +31°C° 0 mm 3 m/s 752 mmHg 44%
    12:00 +33°C° 0 mm 3 m/s 751 mmHg 41%
    13:00 +34°C° 0 mm 3 m/s 751 mmHg 38%
    14:00 +35°C° 0 mm 3 m/s 751 mmHg 38%
    15:00 +35°C° 0 mm 3 m/s 750 mmHg 39%
    16:00 +35°C° 0 mm 3 m/s 750 mmHg 39%
    17:00 +34°C° 0 mm 3 m/s 750 mmHg 43%
    18:00 +31°C° 0 mm 3 m/s 750 mmHg 48%
    19:00 +30°C° 0 mm 3 m/s 750 mmHg 53%
    20:00 +29°C° 0 mm 2 m/s 750 mmHg 56%
    21:00 +27°C° 0 mm 2 m/s 750 mmHg 59%
    22:00 +26°C° 0 mm 2 m/s 750 mmHg 61%
    23:00 +25°C° 0 mm 2 m/s 750 mmHg 64%
    Voir plus